[[{"header":{"parameterUnit":"m.s-1","parameterCategory":1,"la1":30.2991,"la2":30.254,"lo1":-89.0895,"lo2":-89.0444,"dy":0.0017,"dx":0.0017,"nx":28,"ny":28,"refTime":"2023-08-30T09:00:00:Z","depth":0,"parameterNumber":2,"parameterNumberName":"U-component_of_WINDS"},"data":[0,0,0,0,0,0,0,0,0,0,0,0,0,0,0,0,0,0,0,0,0,0,0,0,0,0,0,0,0,0,0,0,0,0,0,0,0,0,0,0,0,0,0,0,0,0,0,0,0,0,0,0,0,0,0,0,0,0,0.3879,0.3879,0,0.3894,0.3894,0.3894,0.3916,0.3917,0.3917,0.3918,0.3933,0.3933,0.3933,0,0,0,0,0,0,0,0,0,0,0,0,0,0.3868,0.3868,0.3879,0.3879,0.3879,0.3894,0.3894,0.3894,0.3916,0.3917,0.3917,0.3918,0.3933,0.3933,0.3933,0,0,0,0,0,0,0,0,0,0,0,0,0,0.3877,0.3868,0.3879,0.3892,0.3893,0.3894,0.3894,0.3894,0.3916,0.3917,0.3917,0.3918,0.3933,0.3933,0.3933,0.3922,0,0,0.3933,0.3933,0,0,0,0,0,0,0,0,0.3876,0.3877,0.389,0.3891,0.3892,0.3904,0.3896,0.3904,0.3916,0.3907,0.3918,0.3918,0.3923,0.3923,0.3925,0.3922,0.3923,0.3933,0.3933,0.3933,0.3933,0,0,0,0,0,0,0,0.3875,0.3876,0.3885,0.389,0.3891,0.3897,0.3899,0.3897,0.3912,0.3908,0.391,0.3911,0.3923,0.3925,0.3926,0.3923,0.3933,0.3933,0.3933,0.3933,0.3912,0.3911,0,0,0,0,0,0,0.3873,0.3876,0.3884,0.3885,0.3885,0.3896,0.3899,0.39,0.3912,0.3914,0.3911,0.3912,0.3925,0.3926,0.3926,0.3914,0.3933,0.3933,0.3933,0.3913,0.3912,0.3911,0,0,0,0,0,0,0.3873,0.3873,0.3884,0.3881,0.3883,0.3896,0.3897,0.39,0.3901,0.3914,0.3916,0.391,0.3925,0.3926,0.3923,0.3915,0.3933,0.3933,0.3913,0.3912,0.3911,0.3889,0,0,0,0,0,0,0.3872,0.3873,0.3869,0.3881,0.3883,0.388,0.3897,0.39,0.3901,0.3903,0.3913,0.3916,0.3926,0.3922,0.3923,0.3915,0.3933,0.3914,0.3913,0.3912,0.389,0.3887,0.3885,0,0,0,0,0,0.3872,0.3862,0.3869,0.387,0.3878,0.3879,0.3881,0.3892,0.3901,0.3897,0.3905,0.3915,0.3916,0.3922,0.3922,0.3915,0.3915,0.3913,0.3912,0.3892,0.3888,0.3885,0,0,0,0,0,0,0.3849,0.3864,0.3872,0.3866,0.3871,0.3883,0.3878,0.3888,0.3891,0.3893,0.3907,0.3909,0.3904,0.3909,0.3916,0.3904,0.3917,0.3915,0.3901,0.3898,0.3895,0.3893,0.3933,0,0,0,0,0,0.3844,0.3844,0.3857,0.385,0.3852,0.3865,0.3866,0.3875,0.3881,0.3883,0.3891,0.3896,0.3897,0.3898,0.39,0.3891,0.3894,0.3886,0.3883,0.3881,0.3879,0.3875,0.3872,0.3907,0.3907,0.3907,0,0,0.3832,0.384,0.3839,0.3846,0.3851,0.385,0.3867,0.3865,0.3865,0.3883,0.388,0.3886,0.3893,0.3886,0.3884,0.3891,0.387,0.3879,0.3877,0.3877,0.3873,0.387,0.3867,0.3906,0.3906,0.3906,0,0,0.3811,0.3817,0.3812,0.3817,0.3825,0.3833,0.3832,0.3842,0.3847,0.3844,0.3858,0.3857,0.3859,0.3863,0.3866,0.3846,0.3855,0.3846,0.3831,0.3826,0.3823,0.3821,0.3813,0.381,0.3845,0.3845,0.3844,0,0.3795,0.3795,0.3808,0.3806,0.3808,0.3825,0.3819,0.3824,0.3831,0.3832,0.384,0.3842,0.3848,0.3843,0.3838,0.384,0.3838,0.3845,0.3823,0.382,0.3818,0.3811,0.3808,0.3843,0.3843,0.3844,0.3844,0,0.3775,0.3775,0.377,0.3777,0.3779,0.3775,0.3788,0.3788,0.3796,0.3804,0.3801,0.3808,0.3812,0.3811,0.382,0.3807,0.3811,0.382,0.3833,0.3814,0.3807,0.3804,0.3841,0.3842,0.3842,0.3843,0,0,0.374,0.3754,0.3752,0.3756,0.3765,0.3765,0.3762,0.3766,0.3765,0.377,0.3768,0.3769,0.3778,0.378,0.3789,0.3785,0.3768,0.3795,0.3796,0.3789,0.3754,0.3747,0.3743,0.3775,0.3774,0.3774,0.3753,0,0.372,0.3715,0.3727,0.372,0.3719,0.3735,0.3732,0.3737,0.3744,0.3745,0.3753,0.3753,0.3765,0.3766,0.3763,0.3771,0.3761,0.3773,0.3772,0.3772,0.3769,0.374,0.3732,0.3712,0.3751,0.3751,0.375,0,0.3696,0.3699,0.3692,0.3702,0.3702,0.3699,0.3703,0.3704,0.371,0.3715,0.3718,0.3729,0.3726,0.3738,0.3735,0.3742,0.3743,0.3747,0.3746,0.3746,0.376,0.3738,0.3706,0.3703,0.3747,0.3747,0.3747,0,0.367,0.3673,0.3669,0.3671,0.3683,0.368,0.3685,0.3692,0.3693,0.3697,0.3698,0.3701,0.3702,0.3704,0.3715,0.3723,0.371,0.3723,0.3714,0.3713,0.371,0.371,0.3676,0.3711,0.3711,0.3711,0.3711,0,0.3646,0.364,0.3657,0.3654,0.3649,0.3662,0.3656,0.3662,0.3668,0.3667,0.3681,0.3679,0.3694,0.3694,0.3702,0.3698,0.3698,0.3702,0.3704,0.3701,0.37,0.3701,0.3702,0.3711,0.3711,0.3711,0.3711,0,0.3615,0.3627,0.3623,0.3634,0.3637,0.3632,0.3642,0.3639,0.3647,0.3645,0.3646,0.3658,0.3658,0.367,0.3673,0.3678,0.367,0.3675,0.3668,0.3669,0.3658,0.3659,0.3624,0.362,0.3658,0.3657,0.3657,0,0.3599,0.3595,0.3606,0.3606,0.361,0.361,0.3612,0.3625,0.3626,0.3632,0.3629,0.3631,0.3633,0.3633,0.3642,0.3644,0.3649,0.3637,0.365,0.3646,0.3648,0.3648,0.3648,0.3634,0.3633,0.3633,0.3633,0,0.3569,0.3574,0.3576,0.3579,0.358,0.3583,0.3587,0.3587,0.3601,0.3601,0.3602,0.3604,0.3607,0.3608,0.3612,0.3616,0.3627,0.3629,0.3626,0.3622,0.3618,0.3619,0.3659,0.3629,0.363,0.363,0.363,0.363,0.3544,0.3542,0.3549,0.355,0.3554,0.3558,0.3556,0.3564,0.3565,0.3568,0.3576,0.3575,0.3582,0.3588,0.3591,0.3591,0.3597,0.3594,0.3593,0.3592,0.359,0.3618,0.3592,0.3592,0.3592,0.3592,0.3592,0,0.3514,0.3519,0.352,0.3526,0.3526,0.3536,0.3541,0.3541,0.354,0.3546,0.3547,0.3548,0.3549,0.3558,0.3561,0.3558,0.3563,0.3558,0.3558,0.3559,0.3584,0.3586,0.3555,0.3555,0.3555,0.3555,0.3555,0.3555,0.3498,0.3494,0.35,0.3498,0.3504,0.3503,0.3505,0.3508,0.3512,0.3512,0.3513,0.3519,0.3526,0.3529,0.353,0.3533,0.3533,0.3527,0.3531,0.3554,0.3558,0.3561,0.3562,0.3527,0.3527,0.3506,0.3505,0.3505]},{"header":{"parameterUnit":"m.s-1","parameterCategory":1,"la1":30.2991,"la2":30.254,"lo1":-89.0895,"lo2":-89.0444,"dy":0.0017,"dx":0.0017,"nx":28,"ny":28,"refTime":"2023-08-30T09:00:00:Z","depth":0,"parameterNumber":3,"parameterNumberName":"V-component_of_WINDS"},"data":[0,0,0,0,0,0,0,0,0,0,0,0,0,0,0,0,0,0,0,0,0,0,0,0,0,0,0,0,0,0,0,0,0,0,0,0,0,0,0,0,0,0,0,0,0,0,0,0,0,0,0,0,0,0,0,0,0,0,-0.0589,-0.0589,0,-0.058,-0.058,-0.0579,-0.0604,-0.0605,-0.0606,-0.0606,-0.0595,-0.0594,-0.0593,0,0,0,0,0,0,0,0,0,0,0,0,0,-0.0625,-0.0624,-0.0589,-0.0589,-0.0588,-0.058,-0.058,-0.0579,-0.0604,-0.0605,-0.0606,-0.0607,-0.0595,-0.0594,-0.0593,0,0,0,0,0,0,0,0,0,0,0,0,0,-0.0612,-0.0624,-0.0589,-0.06,-0.0601,-0.058,-0.058,-0.0579,-0.0604,-0.0605,-0.0606,-0.0607,-0.0596,-0.0594,-0.0593,-0.056,0,0,-0.0588,-0.0587,0,0,0,0,0,0,0,0,-0.0613,-0.0611,-0.0598,-0.0599,-0.06,-0.0594,-0.0588,-0.0573,-0.0603,-0.0602,-0.0606,-0.0608,-0.0593,-0.0592,-0.0588,-0.0559,-0.0559,-0.0588,-0.0587,-0.0586,-0.0586,0,0,0,0,0,0,0,-0.0614,-0.0611,-0.0585,-0.0598,-0.0599,-0.0604,-0.0604,-0.0585,-0.0591,-0.0603,-0.0604,-0.0603,-0.0594,-0.0589,-0.0588,-0.0559,-0.0588,-0.0586,-0.0585,-0.0585,-0.0503,-0.0502,0,0,0,0,0,0,-0.0613,-0.0612,-0.0585,-0.0585,-0.0609,-0.0603,-0.0602,-0.0595,-0.0592,-0.0592,-0.0602,-0.0604,-0.0591,-0.059,-0.0587,-0.0549,-0.0586,-0.0585,-0.0584,-0.0504,-0.0502,-0.0501,0,0,0,0,0,0,-0.0614,-0.0611,-0.0586,-0.0599,-0.0596,-0.0601,-0.0592,-0.0594,-0.0589,-0.0591,-0.0592,-0.0596,-0.0592,-0.059,-0.0567,-0.0549,-0.0584,-0.0583,-0.0505,-0.0504,-0.0502,-0.0471,0,0,0,0,0,0,-0.0615,-0.0611,-0.0599,-0.0598,-0.0595,-0.0565,-0.0591,-0.0593,-0.0587,-0.0589,-0.0586,-0.0587,-0.0593,-0.0569,-0.0565,-0.0547,-0.0581,-0.0507,-0.0505,-0.0502,-0.0474,-0.0469,-0.0464,0,0,0,0,0,-0.0616,-0.059,-0.0598,-0.0595,-0.058,-0.0564,-0.0563,-0.0571,-0.0585,-0.0573,-0.0574,-0.0587,-0.0552,-0.0566,-0.0562,-0.0544,-0.0508,-0.0505,-0.0503,-0.0476,-0.047,-0.0464,0,0,0,0,0,0,-0.0588,-0.059,-0.0599,-0.0572,-0.0568,-0.0569,-0.0553,-0.0564,-0.0555,-0.0558,-0.0568,-0.0567,-0.0542,-0.0541,-0.0557,-0.0512,-0.0532,-0.0528,-0.0514,-0.0507,-0.0503,-0.0503,-0.058,0,0,0,0,0,-0.0579,-0.0566,-0.0569,-0.0545,-0.0542,-0.0548,-0.0541,-0.0548,-0.0544,-0.0542,-0.0542,-0.0536,-0.0524,-0.0516,-0.0505,-0.0474,-0.0474,-0.046,-0.0455,-0.0451,-0.0447,-0.043,-0.0424,-0.0492,-0.0492,-0.0492,0,0,-0.0559,-0.0559,-0.055,-0.0539,-0.0536,-0.0522,-0.0546,-0.0531,-0.052,-0.0539,-0.0518,-0.0517,-0.0512,-0.0485,-0.0473,-0.0484,-0.0428,-0.0447,-0.0444,-0.0442,-0.0427,-0.042,-0.0415,-0.049,-0.049,-0.0491,0,0,-0.0516,-0.0515,-0.0495,-0.0492,-0.0488,-0.0492,-0.0488,-0.0487,-0.0487,-0.0466,-0.048,-0.0468,-0.0447,-0.0442,-0.0437,-0.0393,-0.0404,-0.0389,-0.0363,-0.0347,-0.0342,-0.0337,-0.0321,-0.0315,-0.0386,-0.0386,-0.0386,0,-0.0492,-0.0472,-0.0483,-0.0466,-0.0461,-0.0479,-0.0458,-0.0455,-0.0447,-0.0442,-0.0454,-0.0428,-0.0426,-0.0398,-0.0387,-0.0383,-0.0377,-0.0389,-0.0342,-0.0337,-0.0333,-0.0318,-0.0312,-0.0384,-0.0384,-0.0385,-0.0385,0,-0.0442,-0.0428,-0.0412,-0.0406,-0.0398,-0.038,-0.0387,-0.0379,-0.0386,-0.0389,-0.0367,-0.0365,-0.0354,-0.0348,-0.0355,-0.0321,-0.0327,-0.034,-0.0361,-0.0325,-0.031,-0.0305,-0.0382,-0.0382,-0.0383,-0.0383,0,0,-0.038,-0.038,-0.0374,-0.0371,-0.0369,-0.0358,-0.034,-0.033,-0.0322,-0.0316,-0.0301,-0.0283,-0.0295,-0.0289,-0.0296,-0.0282,-0.0247,-0.0297,-0.0297,-0.0287,-0.0209,-0.0199,-0.0192,-0.0255,-0.0253,-0.0253,-0.0209,0,-0.0338,-0.0308,-0.0317,-0.0287,-0.0274,-0.0291,-0.0275,-0.0271,-0.0274,-0.0263,-0.0265,-0.0252,-0.0269,-0.0266,-0.0253,-0.0254,-0.0231,-0.0257,-0.024,-0.0239,-0.024,-0.0184,-0.0173,-0.0132,-0.0204,-0.0203,-0.0202,0,-0.0284,-0.0277,-0.0245,-0.0245,-0.024,-0.0226,-0.0217,-0.0207,-0.0203,-0.0205,-0.0199,-0.0209,-0.0191,-0.0212,-0.0187,-0.0205,-0.0198,-0.0198,-0.0196,-0.0194,-0.0218,-0.018,-0.0119,-0.0113,-0.0193,-0.0194,-0.0195,0,-0.0241,-0.0224,-0.0202,-0.02,-0.0199,-0.0189,-0.0188,-0.0185,-0.0178,-0.0171,-0.0167,-0.0157,-0.0151,-0.0143,-0.015,-0.0165,-0.0123,-0.0145,-0.0124,-0.0124,-0.0114,-0.0114,-0.0051,-0.0111,-0.0111,-0.0111,-0.0111,0,-0.0192,-0.0172,-0.0183,-0.017,-0.0148,-0.0159,-0.0136,-0.0137,-0.0135,-0.0122,-0.0136,-0.0123,-0.0133,-0.0121,-0.0127,-0.0105,-0.0102,-0.0103,-0.0105,-0.0101,-0.0101,-0.0097,-0.0099,-0.0109,-0.011,-0.011,-0.011,0,-0.014,-0.0147,-0.0125,-0.0127,-0.0127,-0.011,-0.0111,-0.0099,-0.0102,-0.0086,-0.0082,-0.0088,-0.0074,-0.0081,-0.0066,-0.007,-0.0041,-0.0047,-0.0043,-0.0044,-0.0023,-0.0024,0.0047,0.0056,-0.0011,-0.001,-0.001,0,-0.0108,-0.0093,-0.0093,-0.0086,-0.0084,-0.0072,-0.0066,-0.0076,-0.0068,-0.0063,-0.0051,-0.0039,-0.003,-0.0008,-0.001,0.0001,-0.0004,0.002,-0.0003,0.0,-0.0003,-0.0004,-0.0002,0.0025,0.0026,0.0026,0.0027,0,-0.005,-0.0054,-0.0045,-0.0037,-0.0029,-0.0022,-0.0017,-0.001,-0.002,-0.0011,0.0002,0.0009,0.0023,0.0035,0.0045,0.0046,0.0035,0.0034,0.0039,0.0043,0.0045,0.0045,-0.003,0.0032,0.0032,0.0031,0.0031,0.0031,-0.0007,0.0006,0.0008,0.0019,0.0021,0.0026,0.0038,0.0035,0.0046,0.0056,0.0049,0.0065,0.0068,0.0079,0.0082,0.0095,0.0085,0.0093,0.0095,0.0098,0.0101,0.0042,0.0097,0.0096,0.0096,0.0096,0.0096,0,0.0051,0.0051,0.0061,0.0068,0.0077,0.0065,0.007,0.0078,0.0092,0.0096,0.0104,0.012,0.0131,0.013,0.0141,0.0151,0.0146,0.0154,0.0154,0.0154,0.0108,0.0103,0.0158,0.0158,0.0158,0.0158,0.0158,0.0158,0.0082,0.0103,0.0098,0.012,0.012,0.0135,0.0139,0.0144,0.0146,0.0164,0.0173,0.0172,0.0173,0.0184,0.0195,0.0194,0.0199,0.0209,0.0207,0.0164,0.0158,0.0152,0.0147,0.021,0.021,0.0252,0.0252,0.0252]}]]